Tracking 35275 objects as of 9-Sep-2026
HD Live streaming from Space Station
objects crossing your sky now

NOAA 17 DEB

Track NOAA 17 DEB now!
10-day predictions


NORAD ID: 48184
Int'l Code: 2002-032AA
Launch date: June 24, 2002
Source: United States (US)
Launch site: AIR FORCE WESTERN TEST RANGE (AFWTR)

Note: This is SATELLITE DEBRIS
Your satellite tracking list
Your tracking list is empty




NASA's NSSDC Master Catalog

Two Line Element Set (TLE):
1 48184U 02032Z   26250.95908925  .00004799  00000-0  11753-2 0  9992
2 48184  98.8358 255.6667 0013465  18.9565 341.2128 14.52913987284798
Source of the keplerian elements: AFSPC